When you browse on this site, cookies collect data to enhance your experience and personalize the content and advertising you see.
Visit our Privacy Policy to learn more. By continuing to use the site, you agree to this use of cookies and data.
  • In Deutschland
  • Länderverzeichnis
  • Für 7 Tage
  • Wassertemperatur
  • Wetterkarte
  • Widgets
  • user-avatar
    Anmelden

    Stündliche Wetter Canberra

    Heute, 23 August, Freitag

    Zeit Temperatur Niederschläge Wind Luftdruck Luftfeuchtigkeit
    00:00 +2°C° 0 mm 1 m/S 713 mmHg 78%
    01:00 +1°C° 0 mm 1 m/S 713 mmHg 82%
    02:00 +1°C° 0 mm 1 m/S 713 mmHg 82%
    03:00 0°C° 0 mm 1 m/S 713 mmHg 82%
    04:00 0°C° 0 mm 1 m/S 713 mmHg 83%
    05:00 0°C° 0 mm 1 m/S 713 mmHg 80%
    06:00 -1°C° 0 mm 0 m/S 714 mmHg 77%
    07:00 -1°C° 0 mm 0 m/S 714 mmHg 74%
    08:00 +3°C° 0 mm 1 m/S 714 mmHg 63%
    09:00 +7°C° 0 mm 1 m/S 714 mmHg 51%
    10:00 +10°C° 0 mm 1 m/S 715 mmHg 42%
    11:00 +12°C° 0 mm 2 m/S 715 mmHg 42%
    12:00 +12°C° 0 mm 3 m/S 714 mmHg 41%
    13:00 +13°C° 0 mm 3 m/S 713 mmHg 41%
    14:00 +13°C° 0 mm 4 m/S 713 mmHg 45%
    15:00 +12°C° 0 mm 4 m/S 713 mmHg 49%
    16:00 +12°C° 0 mm 3 m/S 713 mmHg 53%
    17:00 +10°C° 0 mm 3 m/S 713 mmHg 63%
    18:00 +7°C° 0 mm 3 m/S 713 mmHg 72%
    19:00 +5°C° 0 mm 2 m/S 713 mmHg 82%
    20:00 +4°C° 0 mm 2 m/S 713 mmHg 82%
    21:00 +4°C° 0 mm 2 m/S 713 mmHg 82%
    22:00 +4°C° 0 mm 1 m/S 712 mmHg 81%
    23:00 +4°C° 0 mm 1 m/S 712 mmHg 82%

    Morgen, 24 August, Samstag

    Zeit Temperatur Niederschläge Wind Luftdruck Luftfeuchtigkeit
    00:00 +3°C° 0 mm 1 m/S 712 mmHg 82%
    01:00 +3°C° 0 mm 1 m/S 711 mmHg 82%
    02:00 +3°C° 0 mm 1 m/S 711 mmHg 83%
    03:00 +3°C° 0 mm 1 m/S 711 mmHg 83%
    04:00 +2°C° 0 mm 1 m/S 711 mmHg 84%
    05:00 +2°C° 0 mm 1 m/S 711 mmHg 85%
    06:00 +2°C° 0 mm 1 m/S 711 mmHg 85%
    07:00 +2°C° 0 mm 1 m/S 710 mmHg 86%
    08:00 +3°C° 0 mm 3 m/S 710 mmHg 75%
    09:00 +7°C° 0 mm 4 m/S 710 mmHg 63%
    10:00 +10°C° 0 mm 5 m/S 710 mmHg 51%
    11:00 +11°C° 0 mm 6 m/S 710 mmHg 49%
    12:00 +13°C° 0 mm 6 m/S 709 mmHg 47%
    13:00 +14°C° 0 mm 7 m/S 709 mmHg 45%
    14:00 +14°C° 0 mm 7 m/S 708 mmHg 48%
    15:00 +12°C° 0 mm 7 m/S 708 mmHg 52%
    16:00 +13°C° 0 mm 6 m/S 708 mmHg 55%
    17:00 +10°C° 0 mm 5 m/S 708 mmHg 65%
    18:00 +8°C° 0 mm 4 m/S 708 mmHg 75%
    19:00 +8°C° 0 mm 3 m/S 708 mmHg 84%
    20:00 +7°C° 0 mm 3 m/S 708 mmHg 84%
    21:00 +6°C° 0 mm 4 m/S 708 mmHg 83%
    22:00 +6°C° 0 mm 4 m/S 708 mmHg 83%
    23:00 +7°C° 0 mm 3 m/S 707 mmHg 81%

    übermorgen, 25 August, Sonntag

    Zeit Temperatur Niederschläge Wind Luftdruck Luftfeuchtigkeit
    00:00 +5°C° 0 mm 3 m/S 707 mmHg 80%
    01:00 +5°C° 0 mm 3 m/S 707 mmHg 79%
    02:00 +5°C° 0 mm 3 m/S 707 mmHg 77%
    03:00 +5°C° 0 mm 3 m/S 707 mmHg 76%
    04:00 +4°C° 0 mm 3 m/S 707 mmHg 75%
    05:00 +4°C° 0 mm 3 m/S 707 mmHg 79%
    06:00 +4°C° 0 mm 2 m/S 708 mmHg 83%
    07:00 +4°C° 0 mm 1 m/S 708 mmHg 87%
    08:00 +6°C° 0 mm 2 m/S 709 mmHg 77%
    09:00 +9°C° 0 mm 2 m/S 709 mmHg 67%
    10:00 +11°C° 0 mm 3 m/S 710 mmHg 58%
    11:00 +12°C° 0 mm 3 m/S 710 mmHg 50%
    12:00 +13°C° 0 mm 4 m/S 709 mmHg 43%
    13:00 +14°C° 0 mm 5 m/S 709 mmHg 36%
    14:00 +13°C° 0 mm 4 m/S 709 mmHg 39%
    15:00 +12°C° 0 mm 4 m/S 709 mmHg 42%
    16:00 +12°C° 0 mm 4 m/S 709 mmHg 45%
    17:00 +9°C° 0 mm 3 m/S 710 mmHg 57%
    18:00 +6°C° 0 mm 2 m/S 710 mmHg 69%
    19:00 +5°C° 0 mm 1 m/S 710 mmHg 80%
    20:00 +4°C° 0 mm 1 m/S 711 mmHg 85%
    21:00 +4°C° 0 mm 1 m/S 711 mmHg 89%
    22:00 +3°C° 0 mm 1 m/S 712 mmHg 94%
    23:00 +3°C° 0 mm 1 m/S 712 mmHg 93%

    26 August, Montag

    Zeit Temperatur Niederschläge Wind Luftdruck Luftfeuchtigkeit
    00:00 +3°C° 0 mm 1 m/S 712 mmHg 93%
    01:00 +3°C° 0 mm 0 m/S 712 mmHg 93%
    02:00 +3°C° 0 mm 0 m/S 712 mmHg 92%
    03:00 +3°C° 0 mm 0 m/S 712 mmHg 92%
    04:00 +3°C° 0 mm 0 m/S 712 mmHg 92%
    05:00 +4°C° 0 mm 0 m/S 712 mmHg 90%
    06:00 +4°C° 0 mm 0 m/S 713 mmHg 88%
    07:00 +4°C° 0 mm 0 m/S 713 mmHg 87%
    08:00 +7°C° 0 mm 1 m/S 713 mmHg 77%
    09:00 +9°C° 0 mm 1 m/S 713 mmHg 66%
    10:00 +11°C° 0 mm 1 m/S 713 mmHg 56%
    11:00 +12°C° 0 mm 1 m/S 713 mmHg 53%
    12:00 +13°C° 0 mm 1 m/S 713 mmHg 50%
    13:00 +14°C° 0 mm 1 m/S 713 mmHg 46%
    14:00 +13°C° 0 mm 1 m/S 712 mmHg 48%
    15:00 +13°C° 0 mm 1 m/S 712 mmHg 49%
    16:00 +12°C° 0 mm 1 m/S 712 mmHg 50%
    17:00 +10°C° 0 mm 1 m/S 712 mmHg 62%
    18:00 +7°C° 0 mm 2 m/S 713 mmHg 74%
    19:00 +5°C° 0 mm 2 m/S 713 mmHg 86%
    20:00 +5°C° 0 mm 2 m/S 713 mmHg 88%
    21:00 +4°C° 0 mm 2 m/S 714 mmHg 89%
    22:00 +4°C° 0 mm 2 m/S 714 mmHg 91%
    23:00 +3°C° 0 mm 2 m/S 714 mmHg 90%

    27 August, Dienstag

    Zeit Temperatur Niederschläge Wind Luftdruck Luftfeuchtigkeit
    00:00 +3°C° 0 mm 2 m/S 714 mmHg 90%
    01:00 +4°C° 0 mm 1 m/S 714 mmHg 90%
    02:00 +3°C° 0 mm 2 m/S 714 mmHg 87%
    03:00 +3°C° 0 mm 2 m/S 714 mmHg 85%
    04:00 +3°C° 0 mm 2 m/S 713 mmHg 82%
    05:00 +5°C° 0 mm 1 m/S 714 mmHg 82%
    06:00 +5°C° 0 mm 1 m/S 714 mmHg 81%
    07:00 +5°C° 0 mm 1 m/S 715 mmHg 80%
    08:00 +6°C° 0 mm 1 m/S 715 mmHg 76%
    09:00 +8°C° 0 mm 1 m/S 715 mmHg 73%
    10:00 +9°C° 0 mm 1 m/S 715 mmHg 69%
    11:00 +11°C° 0.1 mm 1 m/S 714 mmHg 66%
    12:00 +12°C° 0.1 mm 1 m/S 714 mmHg 63%
    13:00 +13°C° 0.1 mm 1 m/S 714 mmHg 61%
    14:00 +13°C° 0.1 mm 1 m/S 713 mmHg 63%
    15:00 +13°C° 0.1 mm 1 m/S 713 mmHg 66%
    16:00 +12°C° 0.1 mm 2 m/S 713 mmHg 68%
    17:00 +10°C° 0.1 mm 2 m/S 713 mmHg 77%
    18:00 +8°C° 0.1 mm 2 m/S 713 mmHg 85%
    19:00 +7°C° 0.1 mm 2 m/S 714 mmHg 93%
    20:00 +6°C° 0 mm 2 m/S 714 mmHg 94%
    21:00 +7°C° 0 mm 1 m/S 714 mmHg 94%
    22:00 +7°C° 0 mm 1 m/S 714 mmHg 95%
    23:00 +6°C° 0 mm 1 m/S 714 mmHg 95%

    28 August, Mittwoch

    Zeit Temperatur Niederschläge Wind Luftdruck Luftfeuchtigkeit
    00:00 +6°C° 0 mm 1 m/S 714 mmHg 96%
    01:00 +6°C° 0 mm 1 m/S 714 mmHg 96%
    02:00 +5°C° 0 mm 1 m/S 713 mmHg 96%
    03:00 +5°C° 0 mm 1 m/S 713 mmHg 96%
    04:00 +4°C° 0 mm 1 m/S 712 mmHg 96%
    05:00 +3°C° 0 mm 0 m/S 712 mmHg 96%
    06:00 +3°C° 0 mm 0 m/S 713 mmHg 96%
    07:00 +4°C° 0 mm 0 m/S 713 mmHg 95%
    08:00 +7°C° 0 mm 1 m/S 713 mmHg 87%
    09:00 +10°C° 0 mm 1 m/S 713 mmHg 79%
    10:00 +12°C° 0 mm 2 m/S 712 mmHg 71%
    11:00 +13°C° 0 mm 2 m/S 712 mmHg 65%
    12:00 +13°C° 0 mm 3 m/S 711 mmHg 59%
    13:00 +14°C° 0 mm 4 m/S 710 mmHg 54%
    14:00 +14°C° 0.1 mm 4 m/S 710 mmHg 55%
    15:00 +14°C° 0.1 mm 4 m/S 710 mmHg 56%
    16:00 +13°C° 0.1 mm 4 m/S 709 mmHg 57%
    17:00 +11°C° 0 mm 3 m/S 709 mmHg 67%
    18:00 +9°C° 0 mm 3 m/S 710 mmHg 77%
    19:00 +7°C° 0 mm 2 m/S 710 mmHg 88%
    20:00 +6°C° 0 mm 2 m/S 710 mmHg 89%
    21:00 +5°C° 0 mm 2 m/S 710 mmHg 90%
    22:00 +4°C° 0 mm 2 m/S 710 mmHg 92%
    23:00 +4°C° 0 mm 2 m/S 709 mmHg 92%
    Mehr zeigen